Location: Arbon
(43.0005°N, 0.7472°E)
Time: 06:18:38
(UTC+00:00)

Vanguard 2 Rocket - Pass Details

Date: 26 June 2021
Orbit: 554 x 3325 km, 32.9° (Epoch: 26 July)

Event Time Altitude Azimuth Distance (km) Brightness Sun altitude
Rises 21:40:19 0° 275° (W) 7,316 12.1 -16.3°
Reaches altitude 10° 21:45:39 10° 270° (W) 6,239 11.6 -16.8°
Maximum altitude 22:03:19 46° 206° (SSW) 3,297 9.4 -18.4°
Enters shadow 22:11:25 25° 150° (SSE) 3,632 9.3 -19.1°
